Kosmos-2419

operational
NORAD ID: 28916 Int'l Des: 2005-050 Owner: KVR/IACG Country: RU Constellation: GLONASS
MEOCIRCULAR

关于 Kosmos-2419

正在加载描述...

实时位置

正在加载3D地球...

即将过境

高度历史

Altitude vs Time

uPlot chart will show altitude changes over time

两行轨道根数

1 28916U 05050B 25306.51510248 -.00000007 00000-0 00000+0 0 9995
2 28916 65.7187 323.9025 0013929 277.1356 77.1994 2.13106277154423
Epoch: Nov 2, 2025 • Age: 67 hours

当前状态

高度 19121.4 km
速度 3.95 km/s
星下点 -9.04°S, 157.92°E
发射日期 Dec 25, 2005
运行时间 19.8 years
类型 other

技术详情

分类 Payload
质量 1450.00 kg
干质量 1200.00 kg
总质量 1450.00 kg
长度 4.00 m
直径 1.50 m
跨度 7.80 m
形状 Cyl + Ant + 2 Pan
制造商 NPOPMR
平台类型 Uragan
阶段状态 In Orbit
所有者/国家 KVR/IACG/RU

大型星座

Loading constellations...